This demonstration page uses our WeatherBlox Daily Observations layout. Learn more.

38.89511, -77.03637

Hourly Observations for October 7, 2015

Temp ( °F °C ) Dew Point ( °F °C ) Humidity (%) Winds ( mph kmh ) Pressure ( in mb ) Visibility ( mi km ) Precip ( " mm )
12:52 am 00:52 Mostly Cloudy 60 15.6 58 14.4 93 93 Calm 30 1016 10 16.0934 0 0
1:52 am 01:52 Mostly Cloudy 59 15 58 14.4 96 96 Calm 30 1016 10 16.0934 0 0
2:52 am 02:52 Mostly Cloudy 59 15 57 13.9 93 93 Calm 30 1016 10 16.0934 0 0
3:52 am 03:52 Mostly Cloudy 59 15 57 13.9 93 93 Calm 29.99 1016 10 16.0934 0 0
4:52 am 04:52 Cloudy 59 15 56 13.3 90 90 Calm 30 1016 10 16.0934 0 0
5:52 am 05:52 Mostly Cloudy 59 15 57 13.9 93 93 Calm 30.01 1016 10 16.0934 0 0
6:52 am 06:52 Mostly Cloudy 62 16.7 57 13.9 84 84 N 3 6 30.03 1017 10 16.0934 0 0
7:52 am 07:52 Cloudy 61 16.1 58 14.4 90 90 Calm 30.04 1017 10 16.0934 0 0
8:52 am 08:52 Cloudy 64 17.8 58 14.4 81 81 Calm 30.06 1018 10 16.0934 0 0
9:52 am 09:52 Cloudy 63 17.2 58 14.4 84 84 Calm 30.07 1018 10 16.0934 0 0
10:52 am 10:52 Cloudy 66 18.9 58 14.4 75 75 Calm 30.07 1018 10 16.0934 0 0
11:52 am 11:52 Cloudy 68 20 58 14.4 70 70 ESE 3 6 30.07 1018 10 16.0934 0 0
12:52 pm 12:52 Partly Cloudy 68 20 58 14.4 70 70 E 5 7 30.06 1018 10 16.0934 0 0
1:52 pm 13:52 Mostly Cloudy 76 24.4 57 13.9 52 52 WNW 8 13 30.04 1017 10 16.0934 0 0
2:52 pm 14:52 Partly Cloudy 77 25 57 13.9 50 50 NW 7 11 30.02 1017 10 16.0934 0 0
3:52 pm 15:52 Partly Cloudy 78 25.6 57 13.9 48 48 N 13 20 30.01 1016 10 16.0934 0 0
4:52 pm 16:52 Mostly Sunny 77 25 56 13.3 48 48 NNW 10 17 30.01 1016 10 16.0934 0 0
5:52 pm 17:52 Mostly Sunny 75 23.9 56 13.3 52 52 NW 8 13 30.02 1017 10 16.0934 0 0
6:52 pm 18:52 Mostly Clear 73 22.8 56 13.3 55 55 NW 8 13 30.03 1017 10 16.0934 0 0
7:52 pm 19:52 Mostly Clear 69 20.6 57 13.9 66 66 N 5 7 30.05 1018 10 16.0934 0 0
8:52 pm 20:52 Clear 65 18.3 58 14.4 78 78 Calm 30.06 1018 10 16.0934 0 0
9:52 pm 21:52 Clear 65 18.3 59 15 81 81 Calm 30.07 1018 10 16.0934 0 0
10:52 pm 22:52 Partly Cloudy 63 17.2 59 15 87 87 Calm 30.09 1019 10 16.0934 0 0
11:52 pm 23:52 Partly Cloudy 62 16.7 59 15 90 90 S 5 7 30.09 1019 10 16.0934 0 0

Powered by AerisWeather